This demonstration page uses our WeatherBlox Daily Observations layout. Learn more.

Left ArrowRight Arrow

Hourly Observations for December 1, 2021

Temp ( °F °C ) Dew Point ( °F °C ) Humidity (%) Winds ( mph kmh ) Pressure ( in mb ) Visibility ( mi km ) Precip ( " mm )
12:51 am 00:51 Clear 42 5.6 26 -3.3 53 53 N 6 9 30.11 1020 10 16 0.00 0.00
1:51 am 01:51 Clear 43 6.1 27 -2.8 53 53 S 5 7 30.12 1020 10 16 0.00 0.00
2:51 am 02:51 Clear 40 4.4 26 -3.3 58 58 E 7 11 30.12 1020 10 16 0.00 0.00
3:51 am 03:51 Clear 43 6.1 26 -3.3 51 51 ESE 7 11 30.10 1019 10 16 0.00 0.00
4:51 am 04:51 Clear 40 4.4 26 -3.3 58 58 SE 5 7 30.13 1020 10 16 0.00 0.00
5:51 am 05:51 Clear 35 1.7 25 -3.9 67 67 NNW 5 7 30.19 1022 10 16 0.00 0.00
6:51 am 06:51 Clear 38 3.3 26 -3.3 62 62 NNE 9 15 30.20 1023 10 16 0.00 0.00
7:51 am 07:51 Sunny 42 5.6 27 -2.8 55 55 SE 3 6 30.23 1024 10 16 0.00 0.00
8:51 am 08:51 Sunny 44 6.7 28 -2.2 53 53 Calm 30.24 1024 10 16 0.00 0.00
9:51 am 09:51 Sunny 50 10 29 -1.7 44 44 Calm 30.24 1024 10 16 0.00 0.00
10:51 am 10:51 Sunny 60 15.6 30 -1.1 32 32 Calm 30.21 1023 10 16 0.00 0.00
11:51 am 11:51 Sunny 63 17.2 31 -0.6 30 30 W 6 9 30.18 1022 10 16 0.00 0.00
12:51 pm 12:51 Sunny 67 19.4 30 -1.1 25 25 Calm 30.12 1020 10 16 0.00 0.00
1:51 pm 13:51 Sunny 68 20 30 -1.1 24 24 Calm 30.10 1019 10 16 0.00 0.00
6:51 pm 18:51 Clear 56 13.3 27 -2.8 33 33 NE 8 13 30.12 1020 10 16 0.00 0.00
7:51 pm 19:51 Clear 55 12.8 28 -2.2 35 35 Calm 30.12 1020 10 16 0.00 0.00
8:51 pm 20:51 Clear 51 10.6 27 -2.8 39 39 ENE 5 7 30.14 1021 10 16 0.00 0.00
9:51 pm 21:51 Clear 48 8.9 26 -3.3 42 42 Calm 30.14 1021 10 16 0.00 0.00
10:51 pm 22:51 Clear 45 7.2 26 -3.3 48 48 Calm 30.13 1020 10 16 0.00 0.00
11:51 pm 23:51 Clear 44 6.7 26 -3.3 49 49 NNW 3 6 30.13 1020 10 16 0.00 0.00

Powered by AerisWeather